QTR14K KIAH-OTHH

Flight info

Callsign QTR14K
Flight time N/A
Altitude 35000
Route LURIC8 HAWES DCT EDWAH DCT HUMYE DCT KATBE DCT ETWOO DCT FIREN DCT SYI DCT WIXID DCT VXV DCT TOMJO DCT RYCKI DCT DELET DCT DOYAS DCT ORF DCT JANET DCT ZIBUT DCT TILED DCT SOORY DCT 40N050W 42N040W 4330N03000W 4330N02000W DCT RETEN DCT EPOPO DCT TOVBA DCT ULVAX DCT BARDI M191 DIPOL M871 NVS DCT NANDO DCT MINGU DCT ABOSI DCT MABUX DCT RETBA DCT MOPIR DCT LASPO DCT LUXUR UM134 ANB UA411 MORJA DCT SONAK DCT DINUX DCT ASDAX DCT AGARI DCT EMLAR DCT AMIBO DCT ARLOS DCT SALUN N705 MMA P751 DASUM Y234 FYM M872 BDB Y214 ASPUS Y432 LADBO T142 LAEEB
Aircraft A35K/H-VGDW/C

Departure

Time 2026-05-04 23:16
Airport George Bush Intercontinental Airport (KIAH)

Arrival

Time N/A
Airport Hamad International Airport (OTHH)
Time Latitude Longitude Altitude Speed Heading
2026-05-04 23:02 29.98993 -95.34115 131 ft 0 kts 270°
2026-05-04 23:04 29.98993 -95.34114 131 ft 1 kts 270°
2026-05-04 23:05 29.98993 -95.34089 113 ft 1 kts 270°
2026-05-04 23:05 29.98993 -95.34061 112 ft 4 kts 277°
2026-05-04 23:05 29.98988 -95.34030 110 ft 4 kts 288°
2026-05-04 23:05 29.98977 -95.34002 110 ft 4 kts 306°
2026-05-04 23:06 29.98958 -95.33983 111 ft 4 kts 347°
2026-05-04 23:06 29.98934 -95.33981 111 ft 4 kts 360°
2026-05-04 23:06 29.98915 -95.33981 110 ft 0 kts 360°
2026-05-04 23:08 29.98916 -95.33981 110 ft 0 kts 360°
2026-05-04 23:08 29.98919 -95.33981 110 ft 1 kts 360°
2026-05-04 23:08 29.98960 -95.33981 110 ft 13 kts
2026-05-04 23:09 29.99053 -95.33980 111 ft 14 kts
2026-05-04 23:09 29.99146 -95.33990 111 ft 13 kts 329°
2026-05-04 23:09 29.99178 -95.34085 109 ft 13 kts 275°
2026-05-04 23:09 29.99178 -95.34191 113 ft 13 kts 269°
2026-05-04 23:10 29.99177 -95.34299 113 ft 14 kts 269°
2026-05-04 23:10 29.99177 -95.34409 113 ft 14 kts 269°
2026-05-04 23:10 29.99176 -95.34573 113 ft 23 kts 270°
2026-05-04 23:10 29.99176 -95.34755 113 ft 23 kts 271°
2026-05-04 23:11 29.99177 -95.34935 113 ft 22 kts 270°
2026-05-04 23:11 29.99176 -95.35113 113 ft 22 kts 269°
2026-05-04 23:11 29.99175 -95.35287 110 ft 22 kts 270°
2026-05-04 23:11 29.99172 -95.35462 110 ft 20 kts 254°
2026-05-04 23:12 29.99124 -95.35487 111 ft 6 kts 178°
2026-05-04 23:12 29.99081 -95.35486 111 ft 6 kts 178°
2026-05-04 23:12 29.99036 -95.35485 111 ft 8 kts 179°
2026-05-04 23:12 29.98954 -95.35485 111 ft 15 kts 180°
2026-05-04 23:13 29.98886 -95.35539 108 ft 10 kts 263°
2026-05-04 23:13 29.98858 -95.35613 112 ft 10 kts 242°
2026-05-04 23:13 29.98824 -95.35686 110 ft 10 kts 242°
2026-05-04 23:13 29.98785 -95.35745 111 ft 9 kts 211°
2026-05-04 23:14 29.98731 -95.35750 111 ft 7 kts 163°
2026-05-04 23:14 29.98683 -95.35722 112 ft 8 kts 152°
2026-05-04 23:14 29.98664 -95.35710 112 ft 0 kts 152°
2026-05-04 23:15 29.98661 -95.35709 109 ft 3 kts 152°
2026-05-04 23:15 29.98452 -95.35581 111 ft 71 kts 152°
2026-05-04 23:15 29.97805 -95.35187 110 ft 138 kts 152°
2026-05-04 23:15 29.96818 -95.34594 376 ft 172 kts 154°
2026-05-04 23:16 29.95743 -95.33940 1034 ft 179 kts 155°
2026-05-04 23:16 29.94523 -95.33501 1625 ft 191 kts 174°
2026-05-04 23:16 29.93206 -95.33629 2115 ft 191 kts 196°
2026-05-04 23:16 29.92031 -95.34422 2539 ft 204 kts 223°
2026-05-04 23:17 29.91355 -95.35927 2681 ft 227 kts 255°
2026-05-04 23:17 29.91500 -95.37810 2891 ft 250 kts 286°
2026-05-04 23:17 29.92499 -95.39535 3089 ft 272 kts 316°
2026-05-04 23:17 29.94152 -95.40586 3481 ft 282 kts 343°
2026-05-04 23:18 29.96102 -95.40835 3973 ft 283 kts 359°
2026-05-04 23:18 29.98045 -95.40475 4468 ft 284 kts 19°
2026-05-04 23:18 29.99900 -95.39652 4960 ft 286 kts 22°
2026-05-04 23:18 30.01630 -95.38528 5445 ft 288 kts 37°
2026-05-04 23:19 30.03179 -95.37036 5895 ft 292 kts 42°
2026-05-04 23:19 30.04676 -95.35451 6405 ft 293 kts 42°
2026-05-04 23:19 30.06168 -95.33834 6850 ft 296 kts 42°
2026-05-04 23:19 30.07642 -95.32217 7337 ft 296 kts 41°
2026-05-04 23:20 30.09136 -95.30573 7878 ft 297 kts 41°
2026-05-04 23:20 30.10629 -95.28926 8435 ft 298 kts 40°
2026-05-04 23:20 30.12130 -95.27268 8971 ft 299 kts 40°
2026-05-04 23:20 30.13637 -95.25601 9518 ft 301 kts 40°
2026-05-04 23:21 30.15151 -95.23924 10062 ft 302 kts 40°
2026-05-04 23:21 30.16693 -95.22218 10386 ft 313 kts 40°
2026-05-04 23:21 30.18295 -95.20445 10615 ft 326 kts 40°
2026-05-04 23:21 30.19964 -95.18595 10847 ft 338 kts 40°
2026-05-04 23:22 30.21672 -95.16702 10989 ft 353 kts 40°
2026-05-04 23:22 30.23485 -95.14691 11012 ft 370 kts 40°
2026-05-04 23:22 30.25449 -95.12662 11010 ft 385 kts 34°
2026-05-04 23:22 30.27646 -95.10824 11010 ft 394 kts 31°
2026-05-04 23:23 30.29920 -95.09009 11237 ft 400 kts 31°
2026-05-04 23:23 30.32219 -95.07174 11710 ft 401 kts 31°
2026-05-04 23:23 30.34517 -95.05335 12145 ft 402 kts 31°
2026-05-04 23:23 30.36821 -95.03488 12575 ft 404 kts 31°
2026-05-04 23:24 30.39135 -95.01630 12966 ft 406 kts 31°
2026-05-04 23:24 30.41465 -94.99768 13373 ft 407 kts 30°
2026-05-04 23:24 30.43803 -94.97975 13761 ft 409 kts 28°
2026-05-04 23:24 30.46189 -94.96167 14100 ft 411 kts 28°
2026-05-04 23:25 30.48586 -94.94345 14415 ft 413 kts 28°
2026-05-04 23:25 30.50996 -94.92506 14755 ft 415 kts 28°
2026-05-04 23:25 30.53414 -94.90658 15072 ft 418 kts 28°
2026-05-04 23:25 30.55848 -94.88796 15391 ft 420 kts 28°
2026-05-04 23:26 30.58298 -94.86925 15711 ft 422 kts 28°
2026-05-04 23:26 30.60757 -94.85034 16007 ft 425 kts 28°
2026-05-04 23:26 30.63222 -94.83137 16331 ft 427 kts 28°
2026-05-04 23:26 30.65670 -94.81253 16613 ft 429 kts 28°
2026-05-04 23:27 30.68166 -94.79331 16912 ft 431 kts 28°
2026-05-04 23:27 30.70670 -94.77403 17201 ft 433 kts 28°
2026-05-04 23:27 30.73193 -94.75459 17509 ft 436 kts 28°
2026-05-04 23:27 30.75724 -94.73508 17803 ft 437 kts 28°
2026-05-04 23:28 30.78266 -94.71547 18079 ft 440 kts 28°
2026-05-04 23:28 30.80818 -94.69578 18353 ft 441 kts 28°
2026-05-04 23:28 30.83383 -94.67596 18599 ft 443 kts 27°
2026-05-04 23:28 30.85915 -94.65638 18849 ft 444 kts 27°
2026-05-04 23:29 30.88500 -94.63640 19111 ft 446 kts 27°
2026-05-04 23:29 30.91094 -94.61633 19322 ft 449 kts 27°
2026-05-04 23:29 30.93698 -94.59617 19580 ft 450 kts 27°
2026-05-04 23:29 30.96312 -94.57591 19868 ft 451 kts 27°
2026-05-04 23:30 30.98927 -94.55564 20130 ft 453 kts 26°
2026-05-04 23:30 31.01559 -94.53524 20390 ft 455 kts 26°
2026-05-04 23:30 31.04202 -94.51479 20674 ft 456 kts 26°
2026-05-04 23:30 31.06851 -94.49423 20953 ft 458 kts 26°
2026-05-04 23:31 31.09471 -94.47389 21218 ft 459 kts 26°
2026-05-04 23:31 31.12134 -94.45319 21490 ft 461 kts 25°
2026-05-04 23:31 31.14813 -94.43237 21772 ft 463 kts 25°
2026-05-04 23:31 31.17494 -94.41152 22078 ft 465 kts 25°
2026-05-04 23:32 31.20199 -94.39054 22293 ft 468 kts 25°
2026-05-04 23:32 31.22914 -94.36936 22570 ft 470 kts 25°
2026-05-04 23:32 31.25636 -94.34808 22853 ft 471 kts 25°
2026-05-04 23:32 31.28329 -94.32703 23116 ft 473 kts 24°
2026-05-04 23:33 31.31068 -94.30563 23390 ft 475 kts 24°
2026-05-04 23:33 31.33817 -94.28412 23632 ft 476 kts 24°
2026-05-04 23:33 31.36572 -94.26255 23850 ft 478 kts 24°
2026-05-04 23:33 31.39338 -94.24088 24080 ft 479 kts 24°
2026-05-04 23:34 31.42116 -94.21911 24310 ft 481 kts 24°
2026-05-04 23:34 31.44895 -94.19732 24544 ft 482 kts 24°
2026-05-04 23:34 31.47688 -94.17542 24794 ft 485 kts 25°
2026-05-04 23:34 31.50496 -94.15337 25054 ft 487 kts 25°
2026-05-04 23:35 31.53276 -94.13151 25341 ft 488 kts 25°
2026-05-04 23:35 31.56090 -94.10938 25638 ft 489 kts 25°
2026-05-04 23:35 31.58926 -94.08706 25916 ft 491 kts 24°
2026-05-04 23:35 31.61765 -94.06470 26196 ft 493 kts 24°
2026-05-04 23:36 31.64619 -94.04220 26466 ft 494 kts 24°
2026-05-04 23:36 31.67472 -94.01970 26721 ft 496 kts 24°
2026-05-04 23:36 31.70343 -93.99704 26998 ft 498 kts 24°
2026-05-04 23:36 31.73221 -93.97431 27261 ft 499 kts 24°
2026-05-04 23:37 31.76108 -93.95150 27541 ft 501 kts 24°
2026-05-04 23:37 31.78967 -93.92886 27794 ft 503 kts 24°
2026-05-04 23:37 31.81796 -93.90413 28049 ft 511 kts 28°
2026-05-04 23:37 31.84584 -93.87806 28293 ft 513 kts 28°
2026-05-04 23:38 31.87382 -93.85193 28511 ft 514 kts 28°
2026-05-04 23:38 31.90197 -93.82586 28744 ft 515 kts 28°
2026-05-04 23:38 31.93015 -93.79987 29130 ft 513 kts 28°
2026-05-04 23:38 31.95809 -93.77414 29601 ft 509 kts 27°
2026-05-04 23:39 31.98596 -93.74852 29961 ft 507 kts 27°
2026-05-04 23:39 32.01341 -93.72334 30206 ft 507 kts 27°
2026-05-04 23:39 32.04119 -93.69783 30530 ft 505 kts 27°
2026-05-04 23:39 32.06879 -93.67246 30850 ft 503 kts 26°
2026-05-04 23:40 32.09638 -93.64710 31068 ft 503 kts 26°
2026-05-04 23:40 32.12394 -93.62178 31270 ft 503 kts 26°
2026-05-04 23:40 32.15152 -93.59641 31485 ft 502 kts 26°
2026-05-04 23:40 32.17905 -93.57105 31690 ft 502 kts 26°
2026-05-04 23:41 32.20656 -93.54570 31905 ft 502 kts 26°
2026-05-04 23:41 32.23405 -93.52034 32111 ft 501 kts 26°
2026-05-04 23:41 32.26112 -93.49534 32303 ft 501 kts 26°
2026-05-04 23:41 32.28856 -93.46998 32494 ft 501 kts 26°
2026-05-04 23:42 32.31597 -93.44464 32723 ft 500 kts 25°
2026-05-04 23:42 32.34335 -93.41930 32903 ft 500 kts 25°
2026-05-04 23:42 32.37074 -93.39393 33079 ft 499 kts 25°
2026-05-04 23:42 32.39803 -93.36863 33252 ft 499 kts 25°
2026-05-04 23:43 32.42532 -93.34332 33408 ft 499 kts 25°
2026-05-04 23:43 32.45264 -93.31796 33577 ft 498 kts 25°
2026-05-04 23:43 32.47992 -93.29261 33736 ft 498 kts 25°
2026-05-04 23:43 32.50713 -93.26731 33877 ft 498 kts 25°
2026-05-04 23:44 32.53400 -93.24230 34009 ft 498 kts 25°
2026-05-04 23:44 32.56125 -93.21693 34118 ft 498 kts 25°
2026-05-04 23:44 32.58844 -93.19158 34279 ft 497 kts 25°
2026-05-04 23:44 32.61557 -93.16627 34392 ft 497 kts 25°
2026-05-04 23:45 32.64276 -93.14089 34510 ft 496 kts 25°
2026-05-04 23:45 32.66992 -93.11552 34601 ft 496 kts 25°
2026-05-04 23:45 32.69703 -93.09018 34712 ft 496 kts 25°
2026-05-04 23:45 32.72409 -93.06484 34824 ft 496 kts 25°
2026-05-04 23:46 32.77812 -93.01428 34880 ft 499 kts 25°
2026-05-04 23:46 32.83269 -92.96307 34916 ft 500 kts 25°
2026-05-04 23:47 32.88726 -92.91175 34920 ft 500 kts 25°
2026-05-04 23:47 32.94192 -92.86075 34916 ft 495 kts 22°
2026-05-04 23:48 32.97057 -92.83941 34917 ft 476 kts 13°
2026-05-04 23:48 32.99993 -92.82360 34918 ft 466 kts
2026-05-04 23:48 33.06005 -92.79559 34922 ft 463 kts
2026-05-04 23:49 33.12039 -92.76875 34924 ft 463 kts
2026-05-04 23:49 33.18073 -92.74164 34926 ft 464 kts
2026-05-04 23:50 33.24138 -92.71409 34926 ft 468 kts
2026-05-04 23:50 33.30200 -92.68635 34922 ft 471 kts
2026-05-04 23:51 33.36324 -92.65824 34918 ft 472 kts
2026-05-04 23:51 33.42460 -92.63004 34900 ft 473 kts
2026-05-04 23:52 33.48602 -92.60177 34896 ft 473 kts
2026-05-04 23:52 33.54741 -92.57350 34899 ft 473 kts
2026-05-04 23:53 33.60884 -92.54517 34898 ft 473 kts
2026-05-04 23:53 33.66987 -92.51698 34934 ft 473 kts
2026-05-04 23:54 33.73133 -92.48855 34899 ft 473 kts
2026-05-04 23:54 33.79257 -92.46016 34886 ft 472 kts
2026-05-04 23:55 33.85381 -92.43177 34891 ft 471 kts
2026-05-04 23:56 33.94558 -92.38912 34903 ft 472 kts
2026-05-04 23:56 34.00642 -92.36080 34886 ft 472 kts
2026-05-04 23:57 34.06762 -92.33224 34884 ft 472 kts
2026-05-04 23:57 34.12882 -92.30343 34885 ft 475 kts
2026-05-04 23:57 34.15880 -92.28527 34909 ft 490 kts 17°
2026-05-04 23:58 34.18721 -92.26128 34897 ft 509 kts 26°
2026-05-04 23:58 34.21298 -92.23061 34909 ft 531 kts 37°
2026-05-04 23:58 34.23466 -92.19351 34905 ft 549 kts 46°
2026-05-04 23:59 34.27221 -92.11290 34903 ft 557 kts 50°
2026-05-04 23:59 34.30837 -92.02991 34910 ft 558 kts 50°
2026-05-05 00:00 34.34472 -91.94713 34898 ft 557 kts 50°
2026-05-05 00:00 34.38145 -91.86463 34887 ft 557 kts 50°
2026-05-05 00:01 34.41802 -91.78274 34887 ft 556 kts 50°
2026-05-05 00:01 34.45476 -91.70031 34887 ft 556 kts 50°
2026-05-05 00:02 34.49148 -91.61762 34885 ft 559 kts 51°
2026-05-05 00:02 34.50746 -91.57396 34889 ft 574 kts 60°
2026-05-05 00:02 34.51993 -91.52782 34892 ft 579 kts 63°
2026-05-05 00:03 34.54246 -91.43374 34888 ft 583 kts 65°
2026-05-05 00:03 34.56372 -91.33949 34892 ft 583 kts 65°
2026-05-05 00:04 34.58516 -91.24463 34896 ft 583 kts 65°
2026-05-05 00:04 34.60680 -91.14973 34897 ft 583 kts 65°
2026-05-05 00:05 34.62844 -91.05491 34895 ft 583 kts 64°
2026-05-05 00:05 34.65002 -90.96004 34896 ft 584 kts 64°
2026-05-05 00:06 34.67139 -90.86564 34897 ft 584 kts 64°
2026-05-05 00:06 34.69284 -90.77045 34897 ft 584 kts 64°
2026-05-05 00:07 34.71422 -90.67525 34898 ft 584 kts 64°
2026-05-05 00:07 34.73553 -90.57990 34924 ft 585 kts 64°
2026-05-05 00:08 34.75678 -90.48446 34899 ft 585 kts 64°
2026-05-05 00:08 34.77782 -90.38959 34896 ft 585 kts 64°
2026-05-05 00:09 34.79822 -90.29388 34900 ft 585 kts 66°
2026-05-05 00:09 34.81718 -90.19771 34899 ft 584 kts 66°
2026-05-05 00:10 34.83601 -90.10163 34904 ft 583 kts 66°
2026-05-05 00:10 34.85502 -90.00566 34903 ft 583 kts 66°
2026-05-05 00:11 34.87397 -89.91011 34908 ft 578 kts 67°
2026-05-05 00:11 34.89260 -89.81574 34908 ft 576 kts 67°
2026-05-05 00:12 34.91127 -89.72090 34904 ft 575 kts 67°
2026-05-05 00:12 34.92983 -89.62617 34904 ft 575 kts 67°
2026-05-05 00:13 34.94832 -89.53136 34906 ft 575 kts 67°
2026-05-05 00:13 34.96673 -89.43645 34912 ft 575 kts 67°
2026-05-05 00:14 34.98506 -89.34154 34913 ft 575 kts 67°
2026-05-05 00:14 35.00332 -89.24653 34917 ft 575 kts 68°
2026-05-05 00:15 35.02130 -89.15242 34919 ft 571 kts 69°
2026-05-05 00:15 35.04057 -89.05885 34914 ft 565 kts 65°
2026-05-05 00:16 35.06248 -88.96700 34918 ft 563 kts 65°
2026-05-05 00:16 35.08440 -88.87510 34925 ft 564 kts 65°
2026-05-05 00:17 35.10574 -88.78299 34926 ft 563 kts 66°
2026-05-05 00:17 35.12655 -88.69158 34925 ft 562 kts 66°
2026-05-05 00:18 35.14739 -88.59961 34923 ft 562 kts 66°
2026-05-05 00:18 35.16818 -88.50767 34924 ft 561 kts 66°
2026-05-05 00:19 35.18892 -88.41565 34926 ft 561 kts 67°
2026-05-05 00:19 35.20952 -88.32383 34906 ft 560 kts 67°
2026-05-05 00:20 35.23006 -88.23194 34906 ft 560 kts 67°
2026-05-05 00:20 35.25036 -88.14078 34905 ft 558 kts 67°
2026-05-05 00:21 35.27066 -88.04927 34927 ft 556 kts 68°
2026-05-05 00:21 35.29081 -87.95807 34928 ft 555 kts 68°
2026-05-05 00:22 35.31089 -87.86691 34931 ft 554 kts 68°
2026-05-05 00:22 35.33076 -87.77639 34930 ft 554 kts 68°
2026-05-05 00:23 35.34964 -87.68482 34941 ft 556 kts 72°
2026-05-05 00:23 35.36543 -87.59214 34932 ft 555 kts 73°
2026-05-05 00:24 35.38090 -87.49970 34936 ft 553 kts 72°
2026-05-05 00:24 35.39680 -87.40747 34934 ft 553 kts 72°
2026-05-05 00:25 35.41288 -87.31543 34951 ft 552 kts 73°
2026-05-05 00:25 35.42618 -87.23912 34936 ft 550 kts 73°
2026-05-05 00:26 35.44460 -87.13277 34927 ft 548 kts 73°
2026-05-05 00:26 35.46033 -87.04135 34925 ft 547 kts 73°
2026-05-05 00:27 35.47336 -86.96540 34948 ft 547 kts 74°
2026-05-05 00:27 35.48890 -86.87424 34952 ft 545 kts 75°
2026-05-05 00:28 35.50681 -86.76848 34952 ft 544 kts 75°
2026-05-05 00:28 35.51968 -86.69229 34953 ft 544 kts 75°